User: anonymous   Login
Location: Unspecified
(0.0000°N, 0.0000°E)
Time: 12:18:52
(UTC+00:00)
Language:

OGO 1 - Orbit

View from above orbital plane
View from above orbital plane
View from above satellite
View from above satellite

Ground track
Ground track

The orbit data is extracted from the following two-line orbital elements,

1   879U 64054A   18349.59489474 +.00000407 +00000-0 +00000-0 0  9999
2   879 078.9132 325.9641 7796962 201.4788 359.5224 00.37772956006981
Epoch (UTC): 15 December 2018 14:16:38
Eccentricity: 0.7796962
inclination: 78.9132°
perigee height: 11430 km
apogee height: 137487 km
right ascension of ascending node: 325.9641°
argument of perigee: 201.4788°
revolutions per day: 0.37772956
mean anomaly at epoch: 359.5224°
orbit number at epoch: 698

The dashed part of the orbit path shows where the satellite is in the earth's shadow,  

DLR